Powrót do katalogu

FENGYUN 1C DEB

AktywnyPO
NORAD 31323·DEBRIS·🇨🇳 China

Wystrzelony May 10, 1999 z Taiyuan Satellite Launch Center

Loading…

Następne Przeloty (najbliższe 24 godziny)

TLE

Starzejące sięSource: Space-Track

Epoka: Sep 6, 2026, 09:40 UTC

1 31323U 99025BQB 26249.40329534  .00001547  00000-0  62567-3 0  9996
2 31323  99.4013 313.6838 0030512  36.0396 324.2832 14.29223572678024

Śledź FENGYUN 1C DEB w czasie rzeczywistym z AllMySat

Download on the App Store